sat.trackr.live / text

‹ back to catalog

STARLINK-34263

NORAD 64164 · 2025-112U

PAYLOAD ACTIVE UNKNOWN

§ Identity

Operator
Country
US
Launch date
2025-05-27
Launch site
AFWTR
Launch vehicle
Mass (kg)
RCS (m²)

Purposes: comms

External: N2YO · Heavens-Above · Gunter

§ Orbital elements

Epoch: 2026-09-20T20:48:37.222272Z

Period
93.91 min
Inclination
97.2847°
Eccentricity
0.0000242
Mean motion
15.33457111 rev/d
Perigee alt
465.3 km
Apogee alt
465.7 km
Semi-major
6,843.6 km
B*
5.8800e-4
RAAN
310.9232°
Arg perigee
219.4090°
Mean anomaly
140.7135°
Rev number
7,280

§ Raw data

STARLINK-342631 64164U 25112U   26263.86709748  .00018962  00000+0  58800-3 0  99992 64164  97.2847 310.9232 0000242 219.4090 140.7135 15.33457111 72802

JSON: /api/v1/satellites/64164 · /tle

For live sub-satellite position, see the globe view (requires WebGL).

§ Visibility from observer

Set your observer location to see the next 7 days of passes ≥ 10°. The values pass through the URL so the page stays shareable.

No JS? Fill the form by hand. The geolocation button needs JavaScript.